Temperature
20 20 20 20 20 20 20 19 19 19 19 19 19 19 19 19 19 19 19 19 19 19 19 19 19 19 19 19 19 18 18 18 18 18 18 18 18 18 18 18 18 18 18
20 20 20 20 20 20 19 19 19 19 19 19 19 19 19 19 19 19 19 19 19 19 19 19 19 19 19 19 18 18 18 18 18 18 18 18 18 18 18 18 18 18 18
20 20 20 20 20 20 19 19 19 19 19 19 19 19 19 19 19 19 19 19 19 19 19 19 19 18 18 18 18 18 18 18 18 18 18 18 18 18 18 18 18 18 18
20 20 20 20 20 19 19 19 19 19 19 19 19 19 19 19 19 19 19 19 19 19 19 19 19 18 18 18 18 18 18 18 18 18 18 18 18 18 18 18 18 18 17
20 20 20 19 19 19 19 19 19 19 19 19 19 19 19 19 19 19 19 19 19 19 19 18 18 18 18 18 18 18 18 18 18 18 18 18 18 18 18 18 18 17 17
20 20 19 19 19 19 19 19 19 19 19 19 19 19 19 19 19 19 19 19 19 19 19 18 18 18 18 18 18 18 18 18 18 18 18 18 18 18 18 18 18 17 17
20 20 19 19 19 19 19 19 19 19 19 18 19 19 19 19 18 19 19 19 19 19 19 19 18 18 18 18 18 18 18 18 18 18 18 18 18 18 18 18 18 17 17
20 20 19 19 19 19 19 19 19 19 18 18 18 18 18 18 19 18 18 18 18 18 18 18 18 18 18 18 18 18 18 18 18 18 18 18 18 18 18 18 17 17 17
20 20 19 19 19 19 19 19 19 19 18 18 18 18 18 18 18 18 18 18 18 18 18 18 18 18 18 18 18 18 18 18 18 18 18 18 18 18 18 17 17 17 17
20 19 19 19 19 19 19 19 19 19 18 18 18 18 18 18 18 18 18 18 18 18 18 18 18 18 18 18 18 18 18 18 18 18 18 18 18 18 18 18 17 17 17
19 19 19 19 19 19 19 18 18 18 18 18 18 18 18 18 18 18 18 18 18 18 18 18 18 18 18 18 18 18 18 18 18 18 18 18 18 18 18 18 18 17 17
19 19 19 19 19 18 18 18 18 18 18 18 18 18 18 18 18 18 18 18 18 18 18 18 18 18 18 18 18 18 18 18 18 18 18 18 18 18 18 18 18 17 17
19 19 19 19 18 18 18 18 18 18 18 18 18 18 18 18 18 18 18 18 18 18 18 18 18 18 18 18 18 18 18 18 18 18 18 18 18 18 18 18 18 17 17
19 19 19 19 19 19 18 18 18 18 18 18 18 18 18 18 18 18 18 18 18 18 18 18 18 18 18 18 18 18 18 18 18 18 18 18 18 18 18 18 18 17 17
19 19 19 19 19 18 18 18 18 18 18 18 18 18 18 18 18 18 18 18 18 18 18 18 18 18 18 18 18 18 18 18 18 18 18 18 18 18 18 18 17 17 17
19 19 19 19 19 19 19 18 18 18 18 18 18 18 18 18 18 18 18 18 18 18 18 18 18 18 18 18 18 18 18 18 18 18 18 18 18 17 17 17 17 17 17
20 19 19 19 19 19 19 18 18 18 18 18 18 18 18 18 18 18 18 18 18 18 18 18 18 18 18 18 18 18 18 18 18 17 17 17 18 17 17 17 17 17 17
20 19 19 19 19 19 18 18 18 18 18 18 18 18 18 18 18 18 18 18 18 18 18 18 18 18 18 18 18 18 18 18 18 17 17 17 17 17 17 17 17 17 17
20 20 19 19 19 19 18 18 18 18 18 18 18 18 18 18 18 18 18 18 18 18 18 18 18 18 18 18 18 18 18 18 18 17 17 17 17 17 17 17 17 17 17
20 20 20 19 19 19 19 18 18 18 18 18 18 18 18 18 18 18 18 18 18 18 18 18 18 18 18 18 18 18 18 18 18 17 18 17 17 17 17 17 17 17 17
20 20 20 19 19 19 19 18 18 18 18 18 18 18 18 18 18 18 18 18 18 18 18 18 18 18 18 18 18 18 18 18 18 18 18 17 17 17 17 17 17 17 17
20 20 20 19 19 19 19 19 19 18 18 18 18 18 18 18 18 18 18 18 18 18 18 18 18 18 17 18 17 17 17 18 18 18 18 18 17 17 17 17 17 17 17
20 20 20 20 19 19 19 19 19 18 18 18 18 18 18 18 18 18 18 18 18 18 18 18 18 18 18 17 17 17 17 17 17 18 18 18 18 18 17 17 17 17 17
21 20 20 20 19 19 19 19 19 19 18 18 18 18 18 18 18 18 18 18 18 18 18 18 18 18 18 18 18 18 18 17 17 17 17 17 17 17 17 17 17 17 17
21 20 20 20 19 19 19 19 19 19 18 18 18 18 18 18 18 18 18 18 18 18 18 18 18 18 18 18 18 18 18 17 17 17 17 17 17 17 17 17 17 17 17
21 20 20 20 19 19 19 19 18 18 18 18 18 18 18 18 18 18 18 18 18 18 18 18 18 17 17 17 18 18 17 17 17 17 17 17 17 17 17 17 17 17 17
Wind_Speed
3 6 11 12 14 15 15 15 15 15 15 15 16 16 17 17 17 18 18 18 18 18 18 17 17 16 16 16 15 15 15 15 14 14 14 14 14 14 14 15 14 13 15
7 8 12 14 15 15 15 14 15 14 14 14 15 15 16 16 16 16 17 18 18 18 17 16 16 16 15 15 14 14 14 13 13 13 13 12 12 12 13 14 13 12 14
9 9 13 15 16 15 15 14 14 14 14 14 14 15 15 15 15 15 16 16 17 17 16 15 15 14 14 14 13 13 12 12 12 11 12 10 10 11 13 13 13 13 13
10 10 12 15 15 15 15 14 14 14 13 14 14 14 14 14 14 14 14 15 16 16 15 14 14 14 13 13 11 11 11 10 10 10 9 8 9 11 13 13 13 13 13
9 10 13 16 15 15 15 14 13 13 13 13 13 14 14 13 13 13 14 14 15 16 15 14 14 13 12 12 10 9 9 9 9 9 8 8 9 11 12 13 13 13 13
9 10 13 15 15 15 15 14 13 12 12 12 13 13 13 12 11 12 13 13 14 15 14 13 13 12 11 10 9 8 8 8 9 8 9 9 9 11 12 12 13 13 12
8 9 12 14 15 15 14 13 12 12 12 12 12 12 12 11 10 11 12 12 13 14 13 13 13 12 11 10 8 7 7 7 8 8 9 9 10 12 13 12 12 12 12
9 8 11 13 14 14 13 13 12 12 12 11 11 11 10 10 10 10 11 12 12 13 13 13 12 12 10 9 8 7 6 7 7 8 9 9 11 12 12 12 12 12 11
9 8 8 10 12 12 12 12 11 11 11 11 10 9 9 9 10 10 10 11 12 12 12 12 12 11 10 8 7 7 6 7 7 7 9 9 12 12 12 12 12 11 11
7 6 6 8 8 9 10 11 11 11 11 11 10 9 8 8 9 10 9 10 11 11 11 11 11 11 10 9 7 7 7 7 7 8 8 9 13 13 13 12 12 11 11
7 4 5 6 6 6 7 9 10 11 11 10 9 8 7 6 7 8 9 10 10 10 11 11 11 11 10 9 8 7 6 4 7 7 8 11 13 13 13 13 12 12 11
6 4 4 4 5 5 6 7 7 8 8 8 7 7 6 6 6 7 8 9 9 9 10 10 10 10 8 6 7 6 4 5 6 7 9 13 14 14 13 13 12 12 11
7 5 4 4 4 4 3 5 4 5 6 6 6 6 6 5 5 5 5 6 6 7 6 7 8 7 5 5 4 4 5 5 6 8 11 15 14 14 13 13 13 12 12
7 6 4 3 4 3 4 4 4 4 4 4 6 7 6 3 3 3 3 4 5 5 5 5 5 6 5 5 5 5 5 5 6 8 11 14 14 14 13 13 13 12 12
7 5 5 4 4 3 3 3 3 3 4 5 5 6 6 4 3 2 3 4 4 4 4 3 4 5 4 4 4 5 6 7 8 9 10 14 14 13 13 13 13 13 12
7 6 4 4 3 3 2 2 3 4 4 4 4 5 6 5 3 2 3 3 3 4 4 4 4 4 4 3 3 4 5 6 8 10 10 12 13 13 13 13 13 12 12
7 6 5 5 3 3 2 2 3 4 4 4 4 5 6 6 4 3 3 3 3 4 4 3 3 3 3 3 2 2 4 5 7 8 9 10 11 13 14 13 13 13 12
7 6 5 5 4 3 2 2 2 3 4 4 4 5 6 6 6 3 2 2 3 3 3 3 3 3 2 2 2 2 2 3 5 7 8 9 9 9 12 14 14 14 14
8 7 5 4 4 3 2 2 3 3 3 3 4 4 5 6 6 4 2 2 3 2 2 3 3 3 3 2 2 2 2 3 4 6 6 7 9 9 10 12 13 13 13
8 7 6 5 4 3 3 3 2 3 2 2 2 3 5 5 5 4 2 2 3 3 2 2 3 3 3 3 2 1 1 2 3 4 5 6 7 9 10 10 10 11 12
7 7 6 6 5 4 2 2 2 2 1 1 1 3 5 5 5 4 3 2 3 3 3 4 3 3 2 2 2 1 2 1 2 3 3 4 5 7 8 9 9 9 9
8 8 7 7 6 5 3 3 3 3 2 2 1 1 3 4 5 5 4 3 3 3 3 3 3 3 2 2 3 2 1 2 2 2 2 4 4 5 6 9 9 9 9
8 8 8 7 6 6 5 3 2 2 2 1 1 0 0 2 3 3 3 3 3 3 3 3 3 4 3 1 2 3 2 2 2 2 2 2 3 3 4 5 8 9 10
9 8 7 7 7 6 5 5 5 4 3 2 1 1 0 1 2 3 3 3 3 2 3 2 2 3 4 2 1 2 3 4 2 1 2 2 3 4 5 5 5 8 9
8 7 7 7 6 5 5 5 5 4 3 2 1 1 1 1 1 2 3 3 3 2 2 2 2 2 2 2 2 1 1 1 2 2 2 2 2 2 3 4 4 6 8
6 6 6 7 6 5 6 5 5 5 4 3 2 1 1 0 0 1 2 2 2 2 2 2 2 2 2 2 1 2 2 2 2 2 3 3 2 3 2 2 3 4 7
Wind_Direction
160 161 147 138 132 127 123 123 120 118 118 117 118 121 125 128 133 135 135 136 138 137 137 137 135 132 132 132 131 129 128 126 125 124 123 123 124 127 123 118 116 114 116
153 150 142 140 135 130 126 122 121 120 119 120 120 121 125 128 132 135 137 138 140 141 140 138 137 137 136 135 133 130 130 127 125 125 123 122 122 126 125 122 120 121 120
138 139 137 137 134 131 127 123 121 119 120 121 121 123 125 128 130 134 139 142 143 143 142 141 142 140 137 137 136 134 134 134 129 127 125 121 122 126 127 125 125 125 125
136 137 136 137 134 132 129 126 125 123 122 123 124 126 129 130 133 139 143 146 147 146 146 147 147 144 142 141 140 139 141 140 140 138 129 127 128 129 128 128 127 127 127
130 136 140 139 135 134 132 129 128 127 125 125 128 130 132 135 139 143 147 149 149 150 152 152 150 149 147 146 147 146 148 150 149 144 136 135 134 136 134 133 131 131 131
129 134 139 140 138 137 136 133 130 128 128 130 132 133 134 136 140 143 145 152 155 156 157 157 156 156 155 155 157 158 157 156 151 139 140 145 147 147 144 141 139 137 138
131 138 140 139 140 139 138 136 135 135 136 137 136 136 137 139 143 145 147 153 159 161 162 163 162 163 163 166 168 171 165 160 150 146 152 154 156 155 152 149 147 143 143
133 136 139 141 141 142 143 142 140 140 144 144 141 140 141 142 146 149 153 155 160 163 164 165 168 169 171 174 176 176 171 163 162 159 156 163 165 162 158 155 154 151 151
127 129 136 141 143 147 149 150 147 146 150 149 147 145 148 147 149 153 155 157 162 165 169 172 175 178 180 183 182 183 179 173 153 153 165 168 170 169 166 164 162 161 162
120 128 137 141 142 148 153 154 155 155 156 157 156 153 153 152 152 157 158 163 168 172 178 182 185 186 188 190 192 193 187 173 159 156 164 173 174 174 173 172 171 173 172
118 122 133 132 137 147 156 158 161 163 165 161 161 159 152 151 156 161 166 170 173 178 184 190 193 193 196 202 204 206 192 174 161 162 171 181 179 179 179 178 178 179 179
134 134 128 131 139 147 155 156 165 167 168 166 164 164 162 159 163 165 171 174 178 182 190 197 199 201 206 216 215 210 188 172 165 170 179 183 184 181 180 182 184 185 187
146 140 136 139 146 147 145 149 160 165 166 169 170 170 168 166 172 172 177 183 186 189 196 205 209 211 211 220 226 218 197 185 180 177 185 187 188 186 185 186 188 189 190
135 135 138 136 135 145 143 149 157 161 167 175 182 177 172 170 175 179 187 193 195 199 201 207 208 211 211 214 216 209 190 183 185 180 185 189 191 192 192 192 192 195 196
131 130 135 126 128 141 134 152 148 162 173 176 177 176 176 173 174 184 190 193 198 200 195 192 196 200 203 208 204 190 182 182 183 184 187 193 195 195 197 197 199 201 203
140 142 145 135 128 126 131 141 157 173 174 169 174 176 172 174 173 167 165 172 191 198 195 189 182 187 191 181 180 186 186 186 185 188 190 196 197 196 198 200 203 205 206
151 150 153 146 134 125 134 151 160 171 166 167 180 174 167 164 167 163 152 163 185 187 173 162 161 165 161 162 176 184 177 186 183 185 190 192 196 203 207 208 210 212 212
151 152 162 151 143 138 129 146 151 161 160 172 179 174 171 170 168 161 150 171 191 181 157 145 144 143 148 154 182 199 178 186 185 185 190 195 198 205 212 215 216 217 217
156 156 158 149 151 152 130 135 137 142 151 173 180 179 177 176 174 162 160 186 187 164 155 162 145 144 153 169 194 202 197 193 195 194 191 197 200 205 207 213 217 218 219
159 158 157 152 155 146 120 102 98 102 113 147 164 187 180 181 181 170 166 168 160 141 140 143 144 141 158 169 181 206 226 208 198 201 199 198 205 211 210 209 211 218 221
161 162 163 161 164 149 136 131 128 137 152 144 169 181 180 181 180 169 163 157 147 148 161 156 144 135 150 139 105 35 353 311 215 218 201 194 202 210 208 209 210 212 220
168 171 169 171 170 167 165 165 158 157 165 166 182 175 188 183 186 179 167 165 153 146 146 151 147 138 155 143 136 113 12 340 317 233 209 200 204 202 203 211 208 210 214
173 177 176 176 172 170 164 142 123 98 66 56 60 100 195 171 165 164 163 160 150 152 155 162 161 157 167 196 169 154 161 224 287 314 261 224 211 206 209 205 207 211 214
181 179 174 173 172 171 160 149 149 147 156 187 179 161 94 131 140 150 151 149 149 150 154 167 153 160 158 186 228 208 190 172 183 287 324 285 238 224 222 219 214 212 213
173 170 171 164 167 164 156 156 153 151 160 147 132 106 96 78 121 153 155 145 145 152 161 166 147 143 158 176 194 196 191 183 181 185 254 285 297 256 235 224 215 210 211
161 162 164 160 165 165 162 160 159 160 157 146 149 159 172 144 100 136 152 142 150 154 165 181 168 158 173 171 188 188 181 182 191 191 217 242 265 279 270 244 220 212 212
Height
1515 1514 1513 1513 1513 1513 1513 1514 1514 1515 1516 1516 1517 1518 1519 1521 1523 1525 1527 1529 1531 1533 1535 1537 1539 1541 1542 1544 1546 1548 1549 1550 1551 1552 1553 1554 1555 1556 1556 1557 1558 1558 1559
1514 1513 1512 1513 1514 1514 1514 1515 1516 1516 1517 1517 1518 1519 1520 1522 1523 1525 1527 1529 1531 1533 1535 1538 1540 1542 1543 1545 1547 1549 1550 1551 1552 1553 1554 1555 1556 1556 1557 1558 1559 1559 1560
1515 1514 1513 1514 1515 1516 1516 1516 1517 1517 1517 1518 1519 1520 1521 1523 1524 1526 1527 1530 1532 1534 1536 1538 1540 1542 1544 1546 1548 1549 1551 1552 1553 1554 1555 1556 1556 1557 1558 1558 1559 1560 1560
1515 1515 1515 1516 1517 1517 1517 1518 1518 1518 1519 1519 1520 1521 1522 1524 1525 1526 1527 1530 1532 1534 1536 1539 1541 1542 1545 1547 1549 1550 1552 1553 1554 1555 1555 1556 1557 1558 1558 1559 1560 1560 1561
1517 1517 1517 1517 1518 1518 1519 1519 1519 1519 1520 1521 1521 1522 1523 1524 1524 1525 1526 1529 1531 1534 1536 1539 1541 1543 1545 1547 1549 1551 1552 1553 1554 1555 1556 1557 1558 1558 1559 1560 1560 1561 1562
1518 1518 1518 1519 1519 1519 1519 1520 1520 1521 1521 1522 1523 1523 1523 1524 1524 1525 1526 1528 1531 1533 1536 1538 1541 1543 1545 1547 1550 1551 1552 1553 1554 1555 1557 1557 1558 1559 1559 1560 1560 1561 1562
1519 1519 1519 1520 1520 1520 1520 1521 1521 1522 1522 1523 1523 1524 1524 1524 1524 1525 1526 1527 1530 1533 1536 1538 1541 1543 1545 1547 1549 1551 1553 1554 1555 1556 1557 1558 1558 1559 1560 1560 1561 1562 1562
1519 1519 1519 1520 1520 1521 1521 1522 1522 1523 1523 1524 1524 1524 1524 1524 1524 1525 1526 1528 1530 1533 1535 1538 1541 1543 1545 1547 1549 1551 1552 1554 1555 1556 1557 1558 1558 1559 1560 1560 1561 1562 1562
1520 1519 1519 1520 1521 1522 1522 1523 1523 1524 1524 1525 1525 1525 1524 1524 1525 1526 1527 1528 1531 1533 1535 1538 1541 1543 1545 1547 1549 1551 1553 1554 1555 1556 1557 1557 1558 1559 1559 1560 1561 1562 1562
1521 1520 1520 1521 1522 1523 1523 1524 1524 1524 1525 1525 1525 1525 1525 1525 1525 1526 1527 1529 1531 1533 1535 1538 1540 1543 1545 1547 1549 1551 1552 1554 1554 1555 1556 1557 1558 1558 1559 1560 1561 1561 1562
1522 1522 1522 1522 1523 1523 1524 1524 1524 1525 1525 1526 1526 1526 1525 1525 1525 1526 1528 1529 1531 1533 1536 1538 1540 1543 1545 1547 1549 1551 1552 1553 1554 1555 1556 1557 1557 1558 1559 1559 1560 1561 1561
1523 1523 1523 1523 1524 1524 1524 1524 1524 1525 1526 1526 1526 1526 1526 1525 1526 1526 1528 1529 1531 1534 1536 1538 1540 1542 1544 1546 1548 1550 1551 1552 1553 1554 1555 1556 1557 1558 1558 1559 1560 1560 1561
1524 1524 1524 1524 1524 1524 1524 1524 1524 1525 1526 1526 1527 1526 1526 1526 1527 1527 1528 1529 1531 1533 1535 1537 1540 1542 1544 1546 1547 1549 1550 1551 1553 1554 1555 1555 1556 1557 1558 1558 1559 1560 1560
1524 1525 1525 1525 1525 1525 1525 1525 1525 1525 1526 1526 1527 1527 1527 1526 1527 1527 1528 1530 1531 1533 1535 1537 1539 1541 1543 1545 1546 1548 1549 1551 1552 1553 1554 1555 1555 1556 1557 1558 1558 1559 1560
1525 1525 1525 1525 1524 1525 1525 1525 1525 1526 1526 1527 1527 1527 1527 1527 1527 1528 1529 1530 1531 1533 1534 1536 1538 1540 1542 1544 1546 1547 1548 1550 1551 1552 1553 1553 1554 1555 1556 1556 1557 1558 1559
1526 1525 1525 1525 1525 1525 1525 1525 1525 1526 1526 1527 1527 1528 1528 1528 1528 1528 1529 1530 1531 1532 1533 1535 1536 1539 1541 1543 1545 1546 1547 1549 1550 1551 1552 1552 1553 1554 1555 1555 1556 1557 1557
1526 1526 1526 1525 1525 1525 1525 1525 1525 1525 1526 1527 1528 1528 1528 1529 1529 1529 1529 1530 1532 1533 1534 1535 1536 1539 1541 1542 1544 1545 1546 1547 1548 1549 1550 1551 1552 1552 1553 1554 1554 1555 1555
1526 1526 1526 1526 1525 1524 1524 1524 1525 1526 1526 1527 1528 1529 1529 1529 1530 1530 1530 1531 1532 1533 1534 1535 1537 1538 1540 1542 1543 1544 1545 1546 1548 1548 1549 1550 1550 1551 1552 1552 1553 1553 1554
1526 1526 1526 1526 1525 1525 1524 1524 1525 1526 1527 1528 1529 1530 1530 1530 1530 1530 1530 1531 1532 1533 1535 1536 1537 1538 1540 1541 1543 1544 1545 1545 1546 1547 1548 1548 1549 1550 1550 1550 1551 1551 1552
1526 1526 1526 1526 1526 1526 1525 1526 1527 1528 1529 1529 1530 1530 1531 1531 1531 1531 1531 1532 1533 1534 1535 1536 1537 1538 1540 1541 1542 1543 1544 1544 1545 1546 1546 1547 1548 1548 1548 1548 1549 1549 1550
1526 1526 1526 1526 1526 1526 1526 1527 1527 1528 1529 1530 1530 1531 1531 1531 1531 1532 1532 1532 1533 1534 1535 1536 1537 1538 1539 1540 1541 1542 1543 1543 1544 1544 1545 1545 1545 1546 1546 1546 1547 1547 1548
1525 1525 1526 1526 1526 1526 1527 1528 1529 1529 1530 1531 1531 1532 1532 1532 1532 1532 1532 1533 1533 1534 1535 1535 1536 1537 1539 1540 1540 1541 1541 1543 1542 1543 1543 1543 1544 1544 1544 1544 1545 1545 1546
1524 1525 1525 1525 1526 1526 1527 1528 1529 1530 1530 1531 1531 1532 1532 1532 1533 1533 1533 1533 1533 1534 1534 1535 1536 1537 1537 1539 1540 1541 1541 1540 1541 1542 1542 1542 1542 1542 1542 1542 1543 1543 1543
1523 1524 1524 1525 1525 1526 1527 1528 1528 1529 1530 1530 1531 1532 1532 1533 1533 1533 1533 1533 1533 1534 1534 1535 1536 1536 1537 1537 1538 1539 1540 1539 1540 1540 1540 1540 1540 1540 1540 1540 1540 1540 1541
1522 1523 1524 1524 1525 1527 1527 1528 1529 1529 1529 1531 1531 1532 1532 1532 1532 1532 1532 1532 1533 1533 1534 1534 1535 1535 1536 1536 1536 1537 1537 1538 1538 1538 1538 1538 1538 1538 1538 1538 1538 1538 1538
1522 1523 1523 1524 1525 1526 1527 1528 1529 1528 1529 1530 1531 1531 1531 1532 1532 1532 1532 1532 1532 1533 1533 1533 1534 1534 1534 1535 1535 1535 1535 1536 1536 1536 1536 1536 1536 1536 1536 1536 1536 1536 1536